Year,Month,Day,Hour,Minute,Value (Times are PST for temperature in C)
2019,05,29,00,00,12.40
2019,05,29,00,01,12.40
2019,05,29,00,02,12.40
2019,05,29,00,03,12.40
2019,05,29,00,04,12.40
2019,05,29,00,05,12.40
2019,05,29,00,06,12.40
2019,05,29,00,07,12.40
2019,05,29,00,08,12.30
2019,05,29,00,09,12.30
2019,05,29,00,10,12.30
2019,05,29,00,11,12.30
2019,05,29,00,12,12.30
2019,05,29,00,13,12.30
2019,05,29,00,14,12.30
2019,05,29,00,15,12.30
2019,05,29,00,16,12.30
2019,05,29,00,17,12.30
2019,05,29,00,18,12.30
2019,05,29,00,19,12.30
2019,05,29,00,20,12.30
2019,05,29,00,21,12.30
2019,05,29,00,22,12.30
2019,05,29,00,23,12.30
2019,05,29,00,24,12.30
2019,05,29,00,25,12.30
2019,05,29,00,26,12.20
2019,05,29,00,27,12.20
2019,05,29,00,28,12.20
2019,05,29,00,29,12.20
2019,05,29,00,30,12.20
2019,05,29,00,31,12.20
2019,05,29,00,32,12.20
2019,05,29,00,33,12.20
2019,05,29,00,34,12.20
2019,05,29,00,35,12.20
2019,05,29,00,36,12.10
2019,05,29,00,37,12.10
2019,05,29,00,38,12.10
2019,05,29,00,39,12.10
2019,05,29,00,40,12.00
2019,05,29,00,41,12.00
2019,05,29,00,42,12.00
2019,05,29,00,43,11.90
2019,05,29,00,44,11.90
2019,05,29,00,45,11.90
2019,05,29,00,46,11.90
2019,05,29,00,47,11.90
2019,05,29,00,48,11.90
2019,05,29,00,49,11.90
2019,05,29,00,50,11.90
2019,05,29,00,51,11.90
2019,05,29,00,52,11.90
2019,05,29,00,53,11.90
2019,05,29,00,54,11.90
2019,05,29,00,55,11.80
2019,05,29,00,56,11.80
2019,05,29,00,57,11.80
2019,05,29,00,58,11.90
2019,05,29,00,59,11.90
2019,05,29,01,00,11.90
2019,05,29,01,01,11.90
2019,05,29,01,02,11.80
2019,05,29,01,03,11.80
2019,05,29,01,04,11.80
2019,05,29,01,05,11.80
2019,05,29,01,06,11.80
2019,05,29,01,07,11.80
2019,05,29,01,08,11.80
2019,05,29,01,09,11.80
2019,05,29,01,10,11.80
2019,05,29,01,11,11.80
2019,05,29,01,12,11.80
2019,05,29,01,13,11.80
2019,05,29,01,14,11.80
2019,05,29,01,15,11.80
2019,05,29,01,16,11.80
2019,05,29,01,17,11.80
2019,05,29,01,18,11.80
2019,05,29,01,19,11.80
2019,05,29,01,20,11.80
2019,05,29,01,21,11.80
2019,05,29,01,22,11.80
2019,05,29,01,23,11.80
2019,05,29,01,24,11.80
2019,05,29,01,25,11.80
2019,05,29,01,26,11.80
2019,05,29,01,27,11.80
2019,05,29,01,28,11.80
2019,05,29,01,29,11.70
2019,05,29,01,30,11.70
2019,05,29,01,31,11.70
2019,05,29,01,32,11.70
2019,05,29,01,33,11.70
2019,05,29,01,34,11.70
2019,05,29,01,35,11.70
2019,05,29,01,36,11.70
2019,05,29,01,37,11.60
2019,05,29,01,38,11.60
2019,05,29,01,39,11.60
2019,05,29,01,40,11.60
2019,05,29,01,41,11.60
2019,05,29,01,42,11.60
2019,05,29,01,43,11.60
2019,05,29,01,44,11.50
2019,05,29,01,45,11.40
2019,05,29,01,46,11.40
2019,05,29,01,47,11.40
2019,05,29,01,48,11.40
2019,05,29,01,49,11.40
2019,05,29,01,50,11.40
2019,05,29,01,51,11.40
2019,05,29,01,52,11.40
2019,05,29,01,53,11.40
2019,05,29,01,54,11.40
2019,05,29,01,55,11.40
2019,05,29,01,56,11.40
2019,05,29,01,57,11.40
2019,05,29,01,58,11.40
2019,05,29,01,59,11.40
2019,05,29,02,00,11.40
2019,05,29,02,01,11.40
2019,05,29,02,02,11.30
2019,05,29,02,03,11.30
2019,05,29,02,04,11.30
2019,05,29,02,05,11.20
2019,05,29,02,06,11.20
2019,05,29,02,07,11.20
2019,05,29,02,08,11.20
2019,05,29,02,09,11.20
2019,05,29,02,10,11.20
2019,05,29,02,11,11.20
2019,05,29,02,12,11.20
2019,05,29,02,13,11.20
2019,05,29,02,14,11.20
2019,05,29,02,15,11.20
2019,05,29,02,16,11.20
2019,05,29,02,17,11.20
2019,05,29,02,18,11.20
2019,05,29,02,19,11.20
2019,05,29,02,20,11.20
2019,05,29,02,21,11.20
2019,05,29,02,22,11.20
2019,05,29,02,23,11.20
2019,05,29,02,24,11.20
2019,05,29,02,25,11.20
2019,05,29,02,26,11.10
2019,05,29,02,27,11.10
2019,05,29,02,28,11.10
2019,05,29,02,29,11.10
2019,05,29,02,30,11.10
2019,05,29,02,31,11.10
2019,05,29,02,32,11.10
2019,05,29,02,33,11.10
2019,05,29,02,34,11.10
2019,05,29,02,35,11.10
2019,05,29,02,36,11.10
2019,05,29,02,37,11.10
2019,05,29,02,38,11.10
2019,05,29,02,39,11.10
2019,05,29,02,40,11.10
2019,05,29,02,41,11.10
2019,05,29,02,42,11.10
2019,05,29,02,43,11.10
2019,05,29,02,44,11.10
2019,05,29,02,45,11.10
2019,05,29,02,46,11.10
2019,05,29,02,47,11.10
2019,05,29,02,48,11.10
2019,05,29,02,49,11.10
2019,05,29,02,50,11.10
2019,05,29,02,51,11.10
2019,05,29,02,52,11.10
2019,05,29,02,53,11.20
2019,05,29,02,54,11.20
2019,05,29,02,55,11.20
2019,05,29,02,56,11.20
2019,05,29,02,57,11.30
2019,05,29,02,58,11.30
2019,05,29,02,59,11.30
2019,05,29,03,00,11.30
2019,05,29,03,01,11.30
2019,05,29,03,02,11.20
2019,05,29,03,03,11.20
2019,05,29,03,04,11.20
2019,05,29,03,05,11.20
2019,05,29,03,06,11.20
2019,05,29,03,07,11.20
2019,05,29,03,08,11.20
2019,05,29,03,09,11.20
2019,05,29,03,10,11.20
2019,05,29,03,11,11.20
2019,05,29,03,12,11.20
2019,05,29,03,13,11.20
2019,05,29,03,14,11.20
2019,05,29,03,15,11.20
2019,05,29,03,16,11.20
2019,05,29,03,17,11.10
2019,05,29,03,18,11.10
2019,05,29,03,19,11.10
2019,05,29,03,20,11.10
2019,05,29,03,21,11.10
2019,05,29,03,22,11.10
2019,05,29,03,23,11.10
2019,05,29,03,24,11.10
2019,05,29,03,25,11.00
2019,05,29,03,26,10.90
2019,05,29,03,27,10.90
2019,05,29,03,28,10.90
2019,05,29,03,29,10.90
2019,05,29,03,30,10.90
2019,05,29,03,31,11.00
2019,05,29,03,32,11.00
2019,05,29,03,33,11.00
2019,05,29,03,34,10.90
2019,05,29,03,35,10.90
2019,05,29,03,36,10.90
2019,05,29,03,37,10.90
2019,05,29,03,38,10.90
2019,05,29,03,39,10.90
2019,05,29,03,40,10.90
2019,05,29,03,41,10.90
2019,05,29,03,42,10.90
2019,05,29,03,43,10.90
2019,05,29,03,44,10.80
2019,05,29,03,45,10.80
2019,05,29,03,46,10.90
2019,05,29,03,47,10.90
2019,05,29,03,48,10.90
2019,05,29,03,49,10.90
2019,05,29,03,50,10.90
2019,05,29,03,51,10.90
2019,05,29,03,52,11.00
2019,05,29,03,53,11.10
2019,05,29,03,54,11.00
2019,05,29,03,55,10.90
2019,05,29,03,56,10.90
2019,05,29,03,57,10.90
2019,05,29,03,58,10.90
2019,05,29,03,59,10.90
2019,05,29,04,00,10.90
2019,05,29,04,01,10.90
2019,05,29,04,02,10.90
2019,05,29,04,03,10.90
2019,05,29,04,04,10.90
2019,05,29,04,05,10.90
2019,05,29,04,06,10.80
2019,05,29,04,07,10.80
2019,05,29,04,08,10.90
2019,05,29,04,09,10.90
2019,05,29,04,10,10.90
2019,05,29,04,11,10.90
2019,05,29,04,12,10.90
2019,05,29,04,13,10.80
2019,05,29,04,14,10.80
2019,05,29,04,15,10.80
2019,05,29,04,16,10.70
2019,05,29,04,17,10.70
2019,05,29,04,18,10.60
2019,05,29,04,19,10.60
2019,05,29,04,20,10.60
2019,05,29,04,21,10.60
2019,05,29,04,22,10.60
2019,05,29,04,23,10.60
2019,05,29,04,24,10.60
2019,05,29,04,25,10.50
2019,05,29,04,26,10.40
2019,05,29,04,27,10.40
2019,05,29,04,28,10.40
2019,05,29,04,29,10.40
2019,05,29,04,30,10.40
2019,05,29,04,31,10.40
2019,05,29,04,32,10.40
2019,05,29,04,33,10.40
2019,05,29,04,34,10.40
2019,05,29,04,35,10.40
2019,05,29,04,36,10.50
2019,05,29,04,37,10.60
2019,05,29,04,38,10.60
2019,05,29,04,39,10.60
2019,05,29,04,40,10.60
2019,05,29,04,41,10.60
2019,05,29,04,42,10.60
2019,05,29,04,43,10.70
2019,05,29,04,44,10.70
2019,05,29,04,45,10.70
2019,05,29,04,46,10.70
2019,05,29,04,47,10.70
2019,05,29,04,48,10.70
2019,05,29,04,49,10.70
2019,05,29,04,50,10.70
2019,05,29,04,51,10.70
2019,05,29,04,52,10.80
2019,05,29,04,53,10.90
2019,05,29,04,54,10.90
2019,05,29,04,55,11.00
2019,05,29,04,56,11.10
2019,05,29,04,57,11.10
2019,05,29,04,58,11.10
2019,05,29,04,59,11.10
2019,05,29,05,00,11.10
2019,05,29,05,01,11.10
2019,05,29,05,02,11.10
2019,05,29,05,03,11.20
2019,05,29,05,04,11.20
2019,05,29,05,05,11.20
2019,05,29,05,06,11.20
2019,05,29,05,07,11.20
2019,05,29,05,08,11.20
2019,05,29,05,09,11.20
2019,05,29,05,10,11.30
2019,05,29,05,11,11.30
2019,05,29,05,12,11.30
2019,05,29,05,13,11.30
2019,05,29,05,14,11.30
2019,05,29,05,15,11.30
2019,05,29,05,16,11.40
2019,05,29,05,17,11.40
2019,05,29,05,18,11.40
2019,05,29,05,19,11.40
2019,05,29,05,20,11.40
2019,05,29,05,21,11.40
2019,05,29,05,22,11.40
2019,05,29,05,23,11.40
2019,05,29,05,24,11.30
2019,05,29,05,25,11.30
2019,05,29,05,26,11.30
2019,05,29,05,27,11.40
2019,05,29,05,28,11.40
2019,05,29,05,29,11.40
2019,05,29,05,30,11.40
2019,05,29,05,31,11.40
2019,05,29,05,32,11.40
2019,05,29,05,33,11.50
2019,05,29,05,34,11.60
2019,05,29,05,35,11.60
2019,05,29,05,36,11.60
2019,05,29,05,37,11.60
2019,05,29,05,38,11.60
2019,05,29,05,39,11.60
2019,05,29,05,40,11.60
2019,05,29,05,41,11.60
2019,05,29,05,42,11.60
2019,05,29,05,43,11.60
2019,05,29,05,44,11.40
2019,05,29,05,45,11.40
2019,05,29,05,46,11.40
2019,05,29,05,47,11.40
2019,05,29,05,48,11.40
2019,05,29,05,49,11.40
2019,05,29,05,50,11.40
2019,05,29,05,51,11.40
2019,05,29,05,52,11.40
2019,05,29,05,53,11.40
2019,05,29,05,54,11.30
2019,05,29,05,55,11.30
2019,05,29,05,56,11.30
2019,05,29,05,57,11.30
2019,05,29,05,58,11.30
2019,05,29,05,59,11.30
2019,05,29,06,00,11.30
2019,05,29,06,01,11.20
2019,05,29,06,02,11.20
2019,05,29,06,03,11.20
2019,05,29,06,04,11.20
2019,05,29,06,05,11.20
2019,05,29,06,06,11.20
2019,05,29,06,07,11.20
2019,05,29,06,08,11.20
2019,05,29,06,09,11.30
2019,05,29,06,10,11.30
2019,05,29,06,11,11.30
2019,05,29,06,12,11.30
2019,05,29,06,13,11.40
2019,05,29,06,14,11.40
2019,05,29,06,15,11.40
2019,05,29,06,16,11.40
2019,05,29,06,17,11.40
2019,05,29,06,18,11.40
2019,05,29,06,19,11.50
2019,05,29,06,20,11.60
2019,05,29,06,21,11.60
2019,05,29,06,22,11.60
2019,05,29,06,23,11.70
2019,05,29,06,24,11.80
2019,05,29,06,25,11.80
2019,05,29,06,26,11.80
2019,05,29,06,27,11.90
2019,05,29,06,28,12.00
2019,05,29,06,29,12.00
2019,05,29,06,30,12.00
2019,05,29,06,31,12.10
2019,05,29,06,32,12.10
2019,05,29,06,33,12.20
2019,05,29,06,34,12.20
2019,05,29,06,35,12.30
2019,05,29,06,36,12.30
2019,05,29,06,37,12.30
2019,05,29,06,38,12.30
2019,05,29,06,39,12.40
2019,05,29,06,40,12.40
2019,05,29,06,41,12.50
2019,05,29,06,42,12.50
2019,05,29,06,43,12.50
2019,05,29,06,44,12.60
2019,05,29,06,45,12.60
2019,05,29,06,46,12.70
2019,05,29,06,47,12.70
2019,05,29,06,48,12.70
2019,05,29,06,49,12.70
2019,05,29,06,50,12.80
2019,05,29,06,51,12.80
2019,05,29,06,52,12.80
2019,05,29,06,53,12.80
2019,05,29,06,54,12.80
2019,05,29,06,55,12.80
2019,05,29,06,56,12.80
2019,05,29,06,57,12.90
2019,05,29,06,58,12.90
2019,05,29,06,59,12.90
2019,05,29,07,00,12.90
2019,05,29,07,01,13.00
2019,05,29,07,02,13.00
2019,05,29,07,03,13.00
2019,05,29,07,04,13.10
2019,05,29,07,05,13.10
2019,05,29,07,06,13.20
2019,05,29,07,07,13.20
2019,05,29,07,08,13.20
2019,05,29,07,09,13.20
2019,05,29,07,10,13.20
2019,05,29,07,11,13.30
2019,05,29,07,12,13.30
2019,05,29,07,13,13.40
2019,05,29,07,14,13.40
2019,05,29,07,15,13.50
2019,05,29,07,16,13.60
2019,05,29,07,17,13.60
2019,05,29,07,18,13.70
2019,05,29,07,19,13.70
2019,05,29,07,20,13.80
2019,05,29,07,21,13.90
2019,05,29,07,22,14.00
2019,05,29,07,23,14.00
2019,05,29,07,24,14.20
2019,05,29,07,25,14.20
2019,05,29,07,26,14.40
2019,05,29,07,27,14.40
2019,05,29,07,28,14.50
2019,05,29,07,29,14.50
2019,05,29,07,30,14.60
2019,05,29,07,31,14.60
2019,05,29,07,32,14.70
2019,05,29,07,33,14.70
2019,05,29,07,34,14.70
2019,05,29,07,35,14.70
2019,05,29,07,36,14.80
2019,05,29,07,37,14.80
2019,05,29,07,38,14.80
2019,05,29,07,39,14.80
2019,05,29,07,40,14.90
2019,05,29,07,41,14.90
2019,05,29,07,42,14.90
2019,05,29,07,43,15.00
2019,05,29,07,44,15.00
2019,05,29,07,45,15.00
2019,05,29,07,46,15.10
2019,05,29,07,47,15.10
2019,05,29,07,48,15.20
2019,05,29,07,49,15.10
2019,05,29,07,50,15.10
2019,05,29,07,51,15.10
2019,05,29,07,52,15.00
2019,05,29,07,53,15.00
2019,05,29,07,54,15.00
2019,05,29,07,55,15.00
2019,05,29,07,56,15.00
2019,05,29,07,57,15.00
2019,05,29,07,58,15.10
2019,05,29,07,59,15.20
2019,05,29,08,00,15.20
2019,05,29,08,01,15.20
2019,05,29,08,02,15.30
2019,05,29,08,03,15.40
2019,05,29,08,04,15.40
2019,05,29,08,05,15.40
2019,05,29,08,06,15.40
2019,05,29,08,07,15.40
2019,05,29,08,08,15.30
2019,05,29,08,09,15.30
2019,05,29,08,10,15.30
2019,05,29,08,11,15.40
2019,05,29,08,12,15.40
2019,05,29,08,13,15.40
2019,05,29,08,14,15.40
2019,05,29,08,15,15.40
2019,05,29,08,16,15.30
2019,05,29,08,17,15.30
2019,05,29,08,18,15.30
2019,05,29,08,19,15.30
2019,05,29,08,20,15.30
2019,05,29,08,21,15.30
2019,05,29,08,22,15.30
2019,05,29,08,23,15.30
2019,05,29,08,24,15.30
2019,05,29,08,25,15.30
2019,05,29,08,26,15.40
2019,05,29,08,27,15.50
2019,05,29,08,28,15.60
2019,05,29,08,29,15.60
2019,05,29,08,30,15.70
2019,05,29,08,31,15.70
2019,05,29,08,32,15.70
2019,05,29,08,33,15.70
2019,05,29,08,34,15.70
2019,05,29,08,35,15.70
2019,05,29,08,36,15.80
2019,05,29,08,37,15.80
2019,05,29,08,38,15.80
2019,05,29,08,39,15.80
2019,05,29,08,40,15.90
2019,05,29,08,41,16.00
2019,05,29,08,42,16.10
2019,05,29,08,43,16.10
2019,05,29,08,44,16.10
2019,05,29,08,45,16.20
2019,05,29,08,46,16.30
2019,05,29,08,47,16.30
2019,05,29,08,48,16.30
2019,05,29,08,49,16.30
2019,05,29,08,50,16.40
2019,05,29,08,51,16.30
2019,05,29,08,52,16.30
2019,05,29,08,53,16.30
2019,05,29,08,54,16.30
2019,05,29,08,55,16.30
2019,05,29,08,56,16.30
2019,05,29,08,57,16.20
2019,05,29,08,58,16.10
2019,05,29,08,59,16.00
2019,05,29,09,00,15.90
2019,05,29,09,01,15.80
2019,05,29,09,02,15.80
2019,05,29,09,03,15.70
2019,05,29,09,04,15.70
2019,05,29,09,05,15.70
2019,05,29,09,06,15.70
2019,05,29,09,07,15.80
2019,05,29,09,08,15.80
2019,05,29,09,09,15.80
2019,05,29,09,10,15.80
2019,05,29,09,11,15.90
2019,05,29,09,12,16.00
2019,05,29,09,13,16.10
2019,05,29,09,14,16.10
2019,05,29,09,15,16.10
2019,05,29,09,16,16.10
2019,05,29,09,17,16.20
2019,05,29,09,18,16.30
2019,05,29,09,19,16.40
2019,05,29,09,20,16.40
2019,05,29,09,21,16.40
2019,05,29,09,22,16.40
2019,05,29,09,23,16.30
2019,05,29,09,24,16.30
2019,05,29,09,25,16.30
2019,05,29,09,26,16.20
2019,05,29,09,27,16.10
2019,05,29,09,28,16.10
2019,05,29,09,29,16.10
2019,05,29,09,30,16.20
2019,05,29,09,31,16.30
2019,05,29,09,32,16.40
2019,05,29,09,33,16.30
2019,05,29,09,34,16.40
2019,05,29,09,35,16.50
2019,05,29,09,36,16.60
2019,05,29,09,37,16.70
2019,05,29,09,38,16.80
2019,05,29,09,39,16.90
2019,05,29,09,40,17.00
2019,05,29,09,41,17.00
2019,05,29,09,42,16.90
2019,05,29,09,43,16.70
2019,05,29,09,44,16.70
2019,05,29,09,45,16.70
2019,05,29,09,46,16.70
2019,05,29,09,47,16.60
2019,05,29,09,48,16.60
2019,05,29,09,49,16.50
2019,05,29,09,50,16.40
2019,05,29,09,51,16.50
2019,05,29,09,52,16.60
2019,05,29,09,53,16.70
2019,05,29,09,54,16.70
2019,05,29,09,55,16.60
2019,05,29,09,56,16.40
2019,05,29,09,57,16.30
2019,05,29,09,58,16.30
2019,05,29,09,59,16.30
2019,05,29,10,00,16.40
2019,05,29,10,01,16.40
2019,05,29,10,02,16.40
2019,05,29,10,03,16.40
2019,05,29,10,04,16.40
2019,05,29,10,05,16.40
2019,05,29,10,06,16.40
2019,05,29,10,07,16.30
2019,05,29,10,08,16.30
2019,05,29,10,09,16.20
2019,05,29,10,10,16.20
2019,05,29,10,11,16.30
2019,05,29,10,12,16.30
2019,05,29,10,13,16.40
2019,05,29,10,14,16.50
2019,05,29,10,15,16.60
2019,05,29,10,16,16.80
2019,05,29,10,17,16.90
2019,05,29,10,18,16.90
2019,05,29,10,19,17.00
2019,05,29,10,20,17.20
2019,05,29,10,21,17.30
2019,05,29,10,22,17.30
2019,05,29,10,23,17.30
2019,05,29,10,24,17.30
2019,05,29,10,25,17.40
2019,05,29,10,26,17.50
2019,05,29,10,27,17.60
2019,05,29,10,28,17.70
2019,05,29,10,29,17.70
2019,05,29,10,30,17.60
2019,05,29,10,31,17.50
2019,05,29,10,32,17.40
2019,05,29,10,33,17.40
2019,05,29,10,34,17.50
2019,05,29,10,35,17.60
2019,05,29,10,36,17.70
2019,05,29,10,37,17.90
2019,05,29,10,38,17.90
2019,05,29,10,39,17.80
2019,05,29,10,40,17.80
2019,05,29,10,41,17.70
2019,05,29,10,42,17.60
2019,05,29,10,43,17.50
2019,05,29,10,44,17.50
2019,05,29,10,45,17.60
2019,05,29,10,46,17.60
2019,05,29,10,47,17.50
2019,05,29,10,48,17.40
2019,05,29,10,49,17.40
2019,05,29,10,50,17.50
2019,05,29,10,51,17.60
2019,05,29,10,52,17.80
2019,05,29,10,53,17.90
2019,05,29,10,54,18.00
2019,05,29,10,55,18.10
2019,05,29,10,56,18.20
2019,05,29,10,57,18.30
2019,05,29,10,58,18.40
2019,05,29,10,59,18.60
2019,05,29,11,00,18.70
2019,05,29,11,01,18.80
2019,05,29,11,02,18.90
2019,05,29,11,03,19.00
2019,05,29,11,04,19.10
2019,05,29,11,05,19.10
2019,05,29,11,06,19.20
2019,05,29,11,07,19.30
2019,05,29,11,08,19.30
2019,05,29,11,09,19.30
2019,05,29,11,10,19.20
2019,05,29,11,11,19.20
2019,05,29,11,12,19.20
2019,05,29,11,13,19.20
2019,05,29,11,14,19.20
2019,05,29,11,15,19.20
2019,05,29,11,16,19.10
2019,05,29,11,17,18.90
2019,05,29,11,18,18.90
2019,05,29,11,19,19.00
2019,05,29,11,20,19.10
2019,05,29,11,21,19.10
2019,05,29,11,22,19.20
2019,05,29,11,23,19.30
2019,05,29,11,24,19.30
2019,05,29,11,25,19.30
2019,05,29,11,26,19.20
2019,05,29,11,27,19.30
2019,05,29,11,28,19.40
2019,05,29,11,29,19.20
2019,05,29,11,30,19.10
2019,05,29,11,31,19.10
2019,05,29,11,32,19.20
2019,05,29,11,33,19.10
2019,05,29,11,34,19.00
2019,05,29,11,35,18.90
2019,05,29,11,36,18.90
2019,05,29,11,37,18.70
2019,05,29,11,38,18.40
2019,05,29,11,39,18.20
2019,05,29,11,40,18.20
2019,05,29,11,41,18.00
2019,05,29,11,42,17.90
2019,05,29,11,43,17.90
2019,05,29,11,44,17.80
2019,05,29,11,45,17.70
2019,05,29,11,46,17.60
2019,05,29,11,47,17.60
2019,05,29,11,48,17.60
2019,05,29,11,49,17.60
2019,05,29,11,50,17.50
2019,05,29,11,51,17.60
2019,05,29,11,52,17.70
2019,05,29,11,53,17.80
2019,05,29,11,54,17.90
2019,05,29,11,55,17.90
2019,05,29,11,56,17.90
2019,05,29,11,57,17.90
2019,05,29,11,58,17.80
2019,05,29,11,59,17.70
2019,05,29,12,00,17.60
2019,05,29,12,01,17.60
2019,05,29,12,02,17.50
2019,05,29,12,03,17.30
2019,05,29,12,04,17.30
2019,05,29,12,05,17.30
2019,05,29,12,06,17.30
2019,05,29,12,07,17.40
2019,05,29,12,08,17.50
2019,05,29,12,09,17.60
2019,05,29,12,10,17.70
2019,05,29,12,11,17.90
2019,05,29,12,12,18.10
2019,05,29,12,13,18.30
2019,05,29,12,14,18.50
2019,05,29,12,15,18.50
2019,05,29,12,16,18.60
2019,05,29,12,17,18.70
2019,05,29,12,18,18.80
2019,05,29,12,19,18.70
2019,05,29,12,20,18.60
2019,05,29,12,21,18.40
2019,05,29,12,22,18.20
2019,05,29,12,23,18.00
2019,05,29,12,24,17.90
2019,05,29,12,25,17.90
2019,05,29,12,26,17.90
2019,05,29,12,27,17.90
2019,05,29,12,28,18.00
2019,05,29,12,29,18.10
2019,05,29,12,30,18.20
2019,05,29,12,31,18.20
2019,05,29,12,32,18.30
2019,05,29,12,33,18.50
2019,05,29,12,34,18.60
2019,05,29,12,35,18.60
2019,05,29,12,36,18.70
2019,05,29,12,37,18.70
2019,05,29,12,38,18.70
2019,05,29,12,39,18.80
2019,05,29,12,40,18.90
2019,05,29,12,41,18.90
2019,05,29,12,42,18.80
2019,05,29,12,43,18.80
2019,05,29,12,44,18.70
2019,05,29,12,45,18.70
2019,05,29,12,46,18.60
2019,05,29,12,47,18.70
2019,05,29,12,48,18.60
2019,05,29,12,49,18.50
2019,05,29,12,50,18.50
2019,05,29,12,51,18.60
2019,05,29,12,52,18.50
2019,05,29,12,53,18.60
2019,05,29,12,54,18.60
2019,05,29,12,55,18.70
2019,05,29,12,56,18.70
2019,05,29,12,57,18.70
2019,05,29,12,58,18.70
2019,05,29,12,59,18.80
2019,05,29,13,00,18.80
2019,05,29,13,01,18.70
2019,05,29,13,02,18.50
2019,05,29,13,03,18.20
2019,05,29,13,04,18.10
2019,05,29,13,05,18.10
2019,05,29,13,06,18.10
2019,05,29,13,07,18.10
2019,05,29,13,08,18.10
2019,05,29,13,09,18.10
2019,05,29,13,10,18.10
2019,05,29,13,11,18.20
2019,05,29,13,12,18.20
2019,05,29,13,13,18.20
2019,05,29,13,14,18.20
2019,05,29,13,15,18.00
2019,05,29,13,16,17.80
2019,05,29,13,17,17.80
2019,05,29,13,18,17.70
2019,05,29,13,19,17.50
2019,05,29,13,20,17.50
2019,05,29,13,21,17.60
2019,05,29,13,22,17.60
2019,05,29,13,23,17.70
2019,05,29,13,24,17.70
2019,05,29,13,25,17.70
2019,05,29,13,26,17.70
2019,05,29,13,27,17.80
2019,05,29,13,28,18.00
2019,05,29,13,29,18.20
2019,05,29,13,30,18.10
2019,05,29,13,31,18.10
2019,05,29,13,32,18.20
2019,05,29,13,33,18.10
2019,05,29,13,34,18.10
2019,05,29,13,35,18.20
2019,05,29,13,36,18.20
2019,05,29,13,37,18.20
2019,05,29,13,38,18.20
2019,05,29,13,39,18.20
2019,05,29,13,40,18.20
2019,05,29,13,41,18.20
2019,05,29,13,42,18.30
2019,05,29,13,43,18.30
2019,05,29,13,44,18.30
2019,05,29,13,45,18.20
2019,05,29,13,46,18.20
2019,05,29,13,47,18.20
2019,05,29,13,48,18.30
2019,05,29,13,49,18.30
2019,05,29,13,50,18.30
2019,05,29,13,51,18.30
2019,05,29,13,52,18.40
2019,05,29,13,53,18.50
2019,05,29,13,54,18.70
2019,05,29,13,55,18.80
2019,05,29,13,56,18.90
2019,05,29,13,57,19.00
2019,05,29,13,58,19.10
2019,05,29,13,59,19.00
2019,05,29,14,00,18.90
2019,05,29,14,01,18.90
2019,05,29,14,02,18.90
2019,05,29,14,03,18.90
2019,05,29,14,04,18.80
2019,05,29,14,05,18.90
2019,05,29,14,06,18.90
2019,05,29,14,07,18.80
2019,05,29,14,08,18.90
2019,05,29,14,09,18.90
2019,05,29,14,10,18.90
2019,05,29,14,11,18.80
2019,05,29,14,12,18.70
2019,05,29,14,13,18.70
2019,05,29,14,14,18.70
2019,05,29,14,15,18.60
2019,05,29,14,16,18.70
2019,05,29,14,17,18.70
2019,05,29,14,18,18.70
2019,05,29,14,19,18.80
2019,05,29,14,20,18.90
2019,05,29,14,21,18.90
2019,05,29,14,22,19.00
2019,05,29,14,23,19.10
2019,05,29,14,24,19.10
2019,05,29,14,25,19.00
2019,05,29,14,26,18.90
2019,05,29,14,27,18.90
2019,05,29,14,28,18.90
2019,05,29,14,29,18.90
2019,05,29,14,30,18.90
2019,05,29,14,31,18.90
2019,05,29,14,32,19.10
2019,05,29,14,33,19.10
2019,05,29,14,34,19.10
2019,05,29,14,35,19.10
2019,05,29,14,36,19.00
2019,05,29,14,37,19.00
2019,05,29,14,38,19.10
2019,05,29,14,39,19.10
2019,05,29,14,40,18.90
2019,05,29,14,41,18.90
2019,05,29,14,42,18.90
2019,05,29,14,43,18.90
2019,05,29,14,44,18.90
2019,05,29,14,45,19.10
2019,05,29,14,46,19.20
2019,05,29,14,47,19.40
2019,05,29,14,48,19.50
2019,05,29,14,49,19.60
2019,05,29,14,50,19.60
2019,05,29,14,51,19.50
2019,05,29,14,52,19.50
2019,05,29,14,53,19.40
2019,05,29,14,54,19.20
2019,05,29,14,55,19.10
2019,05,29,14,56,18.90
2019,05,29,14,57,18.90
2019,05,29,14,58,18.90
2019,05,29,14,59,19.00
2019,05,29,15,00,19.10
2019,05,29,15,01,19.30
2019,05,29,15,02,19.40
2019,05,29,15,03,19.50
2019,05,29,15,04,19.60
2019,05,29,15,05,19.70
2019,05,29,15,06,19.80
2019,05,29,15,07,20.00
2019,05,29,15,08,20.10
2019,05,29,15,09,20.30
2019,05,29,15,10,20.50
2019,05,29,15,11,20.50
2019,05,29,15,12,20.50
2019,05,29,15,13,20.40
2019,05,29,15,14,20.20
2019,05,29,15,15,20.10
2019,05,29,15,16,20.10
2019,05,29,15,17,20.10
2019,05,29,15,18,20.10
2019,05,29,15,19,20.20
2019,05,29,15,20,20.40
2019,05,29,15,21,20.50
2019,05,29,15,22,20.50
2019,05,29,15,23,20.30
2019,05,29,15,24,20.20
2019,05,29,15,25,20.20
2019,05,29,15,26,20.30
2019,05,29,15,27,20.40
2019,05,29,15,28,20.50
2019,05,29,15,29,20.50
2019,05,29,15,30,20.60
2019,05,29,15,31,20.70
2019,05,29,15,32,20.80
2019,05,29,15,33,20.80
2019,05,29,15,34,20.80
2019,05,29,15,35,20.90
2019,05,29,15,36,20.90
2019,05,29,15,37,20.90
2019,05,29,15,38,20.80
2019,05,29,15,39,20.80
2019,05,29,15,40,20.90
2019,05,29,15,41,20.90
2019,05,29,15,42,21.00
2019,05,29,15,43,20.90
2019,05,29,15,44,20.80
2019,05,29,15,45,20.70
2019,05,29,15,46,20.70
2019,05,29,15,47,20.70
2019,05,29,15,48,20.60
2019,05,29,15,49,20.50
2019,05,29,15,50,20.50
2019,05,29,15,51,20.50
2019,05,29,15,52,20.50
2019,05,29,15,53,20.50
2019,05,29,15,54,20.50
2019,05,29,15,55,20.50
2019,05,29,15,56,20.50
2019,05,29,15,57,20.50
2019,05,29,15,58,20.60
2019,05,29,15,59,20.60
2019,05,29,16,00,20.60
2019,05,29,16,01,20.60
2019,05,29,16,02,20.50
2019,05,29,16,03,20.60
2019,05,29,16,04,20.70
2019,05,29,16,05,20.70
2019,05,29,16,06,20.80
2019,05,29,16,07,20.90
2019,05,29,16,08,21.00
2019,05,29,16,09,21.00
2019,05,29,16,10,21.10
2019,05,29,16,11,21.20
2019,05,29,16,12,21.30
2019,05,29,16,13,21.40
2019,05,29,16,14,21.50
2019,05,29,16,15,21.60
2019,05,29,16,16,21.60
2019,05,29,16,17,21.60
2019,05,29,16,18,21.60
2019,05,29,16,19,21.50
2019,05,29,16,20,21.40
2019,05,29,16,21,21.40
2019,05,29,16,22,21.20
2019,05,29,16,23,21.00
2019,05,29,16,24,20.90
2019,05,29,16,25,20.80
2019,05,29,16,26,20.80
2019,05,29,16,27,20.80
2019,05,29,16,28,20.80
2019,05,29,16,29,20.80
2019,05,29,16,30,20.90
2019,05,29,16,31,21.00
2019,05,29,16,32,21.10
2019,05,29,16,33,21.20
2019,05,29,16,34,21.20
2019,05,29,16,35,21.20
2019,05,29,16,36,21.30
2019,05,29,16,37,21.30
2019,05,29,16,38,21.30
2019,05,29,16,39,21.20
2019,05,29,16,40,21.10
2019,05,29,16,41,21.10
2019,05,29,16,42,20.90
2019,05,29,16,43,20.80
2019,05,29,16,44,20.70
2019,05,29,16,45,20.80
2019,05,29,16,46,20.90
2019,05,29,16,47,20.90
2019,05,29,16,48,20.90
2019,05,29,16,49,20.90
2019,05,29,16,50,20.80
2019,05,29,16,51,20.70
2019,05,29,16,52,20.60
2019,05,29,16,53,20.60
2019,05,29,16,54,20.50
2019,05,29,16,55,20.50
2019,05,29,16,56,20.40
2019,05,29,16,57,20.30
2019,05,29,16,58,20.20
2019,05,29,16,59,20.20
2019,05,29,17,00,20.10
2019,05,29,17,01,20.10
2019,05,29,17,02,20.10
2019,05,29,17,03,20.00
2019,05,29,17,04,19.90
2019,05,29,17,05,19.90
2019,05,29,17,06,19.90
2019,05,29,17,07,19.90
2019,05,29,17,08,19.90
2019,05,29,17,09,19.90
2019,05,29,17,10,19.90
2019,05,29,17,11,19.90
2019,05,29,17,12,19.80
2019,05,29,17,13,19.80
2019,05,29,17,14,19.80
2019,05,29,17,15,19.80
2019,05,29,17,16,19.80
2019,05,29,17,17,19.80
2019,05,29,17,18,19.80
2019,05,29,17,19,19.80